When you browse on this site, cookies collect data to enhance your experience and personalize the content and advertising you see.
Visit our Privacy Policy to learn more. By continuing to use the site, you agree to this use of cookies and data.
  • In Hungary
  • List of Countries
  • For 7 days
  • Water Temperature
  • Weather Map
  • News
  • Weather Widgets
  • user-avatar
    Login

    Hourly Weather Kеlang

    Today, 13 November, Wednesday

    Time Temperature Precipitation Wind Pressure Humidity
    00:00 +27°C° 0 mm 1 mps 757 mmHg 82%
    01:00 +27°C° 0 mm 1 mps 757 mmHg 83%
    02:00 +27°C° 0.3 mm 1 mps 757 mmHg 84%
    03:00 +26°C° 0.3 mm 1 mps 756 mmHg 85%
    04:00 +26°C° 0.3 mm 1 mps 756 mmHg 86%
    05:00 +27°C° 0.2 mm 1 mps 757 mmHg 85%
    06:00 +27°C° 0.2 mm 1 mps 757 mmHg 84%
    07:00 +27°C° 0.2 mm 1 mps 758 mmHg 84%
    08:00 +29°C° 0.8 mm 1 mps 758 mmHg 77%
    09:00 +31°C° 0.8 mm 1 mps 758 mmHg 71%
    10:00 +33°C° 0.8 mm 1 mps 758 mmHg 65%
    11:00 +33°C° 0.9 mm 1 mps 757 mmHg 65%
    12:00 +34°C° 0.9 mm 2 mps 756 mmHg 65%
    13:00 +34°C° 0.9 mm 2 mps 756 mmHg 66%
    14:00 +34°C° 0.8 mm 2 mps 755 mmHg 66%
    15:00 +32°C° 0.8 mm 2 mps 755 mmHg 67%
    16:00 +32°C° 0.8 mm 2 mps 754 mmHg 68%
    17:00 +31°C° 0.5 mm 1 mps 755 mmHg 72%
    18:00 +30°C° 0.5 mm 1 mps 756 mmHg 76%
    19:00 +29°C° 0.5 mm 1 mps 756 mmHg 80%
    20:00 +26°C° 0.1 mm 0 mps 757 mmHg 81%
    21:00 +26°C° 0.1 mm 0 mps 757 mmHg 82%
    22:00 +26°C° 0.1 mm 0 mps 758 mmHg 83%
    23:00 +25°C° 0.4 mm 0 mps 757 mmHg 86%

    Tomorrow, 14 November, Thursday

    Time Temperature Precipitation Wind Pressure Humidity
    00:00 +27°C° 0.4 mm 1 mps 757 mmHg 88%
    01:00 +26°C° 0.4 mm 1 mps 757 mmHg 90%
    02:00 +26°C° 0.5 mm 1 mps 757 mmHg 91%
    03:00 +26°C° 0.5 mm 1 mps 756 mmHg 92%
    04:00 +26°C° 0.5 mm 1 mps 756 mmHg 92%
    05:00 +26°C° 0.8 mm 1 mps 756 mmHg 91%
    06:00 +27°C° 0.8 mm 1 mps 757 mmHg 90%
    07:00 +27°C° 0.8 mm 1 mps 757 mmHg 90%
    08:00 +29°C° 0.7 mm 1 mps 757 mmHg 83%
    09:00 +31°C° 0.7 mm 1 mps 757 mmHg 76%
    10:00 +32°C° 0.7 mm 1 mps 758 mmHg 69%
    11:00 +32°C° 0.8 mm 1 mps 757 mmHg 69%
    12:00 +32°C° 0.8 mm 2 mps 756 mmHg 70%
    13:00 +32°C° 0.8 mm 2 mps 755 mmHg 70%
    14:00 +32°C° 0.5 mm 2 mps 755 mmHg 70%
    15:00 +32°C° 0.5 mm 2 mps 754 mmHg 71%
    16:00 +32°C° 0.5 mm 2 mps 753 mmHg 71%
    17:00 +30°C° 0.8 mm 2 mps 754 mmHg 76%
    18:00 +29°C° 0.8 mm 1 mps 755 mmHg 81%
    19:00 +28°C° 0.8 mm 1 mps 756 mmHg 87%
    20:00 +28°C° 1.4 mm 1 mps 756 mmHg 88%
    21:00 +28°C° 1.4 mm 1 mps 756 mmHg 89%
    22:00 +27°C° 1.4 mm 1 mps 757 mmHg 90%
    23:00 +27°C° 0.6 mm 1 mps 757 mmHg 91%

    Day after tomorrow, 15 November, Friday

    Time Temperature Precipitation Wind Pressure Humidity
    00:00 +27°C° 0.6 mm 1 mps 756 mmHg 91%
    01:00 +27°C° 0.6 mm 1 mps 756 mmHg 91%
    02:00 +27°C° 0.4 mm 1 mps 756 mmHg 91%
    03:00 +26°C° 0.4 mm 1 mps 755 mmHg 92%
    04:00 +26°C° 0.4 mm 1 mps 755 mmHg 92%
    05:00 +26°C° 0.8 mm 1 mps 755 mmHg 91%
    06:00 +27°C° 0.8 mm 1 mps 756 mmHg 89%
    07:00 +27°C° 0.8 mm 1 mps 757 mmHg 88%
    08:00 +29°C° 0.4 mm 1 mps 757 mmHg 80%
    09:00 +31°C° 0.4 mm 1 mps 757 mmHg 72%
    10:00 +31°C° 0.4 mm 0 mps 757 mmHg 64%
    11:00 +33°C° 0.9 mm 1 mps 756 mmHg 65%
    12:00 +33°C° 0.9 mm 1 mps 756 mmHg 66%
    13:00 +34°C° 0.9 mm 2 mps 755 mmHg 67%
    14:00 +32°C° 1 mm 2 mps 755 mmHg 71%
    15:00 +32°C° 1 mm 2 mps 754 mmHg 74%
    16:00 +31°C° 1 mm 2 mps 753 mmHg 77%
    17:00 +30°C° 1.1 mm 1 mps 754 mmHg 84%
    18:00 +29°C° 1.1 mm 1 mps 755 mmHg 87%
    19:00 +26°C° 1.1 mm 0 mps 755 mmHg 90%
    20:00 +27°C° 0.2 mm 1 mps 756 mmHg 91%
    21:00 +27°C° 0.2 mm 1 mps 756 mmHg 91%
    22:00 +27°C° 0.2 mm 1 mps 756 mmHg 92%
    23:00 +27°C° 0 mm 1 mps 756 mmHg 91%

    16 November, Saturday

    Time Temperature Precipitation Wind Pressure Humidity
    00:00 +27°C° 0 mm 1 mps 756 mmHg 91%
    01:00 +27°C° 0 mm 1 mps 755 mmHg 90%
    02:00 +26°C° 0.1 mm 1 mps 755 mmHg 90%
    03:00 +26°C° 0.1 mm 1 mps 755 mmHg 90%
    04:00 +26°C° 0.1 mm 2 mps 754 mmHg 91%
    05:00 +26°C° 0.4 mm 2 mps 755 mmHg 89%
    06:00 +27°C° 0.4 mm 1 mps 756 mmHg 88%
    07:00 +27°C° 0.4 mm 1 mps 756 mmHg 87%
    08:00 +29°C° 0.1 mm 1 mps 756 mmHg 77%
    09:00 +31°C° 0.1 mm 1 mps 757 mmHg 68%
    10:00 +33°C° 0.1 mm 1 mps 757 mmHg 58%
    11:00 +34°C° 0.1 mm 1 mps 756 mmHg 55%
    12:00 +35°C° 0.1 mm 2 mps 755 mmHg 53%
    13:00 +36°C° 0.1 mm 2 mps 755 mmHg 51%
    14:00 +35°C° 0.2 mm 2 mps 754 mmHg 55%
    15:00 +34°C° 0.2 mm 2 mps 754 mmHg 59%
    16:00 +33°C° 0.2 mm 3 mps 754 mmHg 64%
    17:00 +31°C° 0.8 mm 2 mps 754 mmHg 71%
    18:00 +29°C° 0.8 mm 1 mps 755 mmHg 78%
    19:00 +27°C° 0.8 mm 1 mps 756 mmHg 86%
    20:00 +27°C° 1.7 mm 1 mps 756 mmHg 86%
    21:00 +27°C° 1.7 mm 1 mps 757 mmHg 87%
    22:00 +27°C° 1.7 mm 1 mps 757 mmHg 88%
    23:00 +27°C° 1.1 mm 1 mps 757 mmHg 88%

    17 November, Sunday

    Time Temperature Precipitation Wind Pressure Humidity
    00:00 +27°C° 1.1 mm 1 mps 757 mmHg 88%
    01:00 +27°C° 1.1 mm 2 mps 756 mmHg 88%
    02:00 +27°C° 0.3 mm 1 mps 756 mmHg 88%
    03:00 +26°C° 0.3 mm 1 mps 756 mmHg 87%
    04:00 +26°C° 0.3 mm 1 mps 756 mmHg 87%
    05:00 +26°C° 0 mm 1 mps 756 mmHg 86%
    06:00 +27°C° 0 mm 1 mps 757 mmHg 85%
    07:00 +27°C° 0 mm 1 mps 757 mmHg 85%
    08:00 +29°C° 0 mm 1 mps 757 mmHg 76%
    09:00 +31°C° 0 mm 1 mps 757 mmHg 67%
    10:00 +33°C° 0 mm 1 mps 757 mmHg 59%
    11:00 +34°C° 0 mm 2 mps 757 mmHg 55%
    12:00 +35°C° 0 mm 2 mps 756 mmHg 51%
    13:00 +36°C° 0 mm 3 mps 755 mmHg 47%
    14:00 +35°C° 0 mm 3 mps 755 mmHg 50%
    15:00 +35°C° 0 mm 3 mps 754 mmHg 52%
    16:00 +35°C° 0 mm 3 mps 754 mmHg 54%
    17:00 +33°C° 0 mm 3 mps 754 mmHg 61%
    18:00 +30°C° 0 mm 2 mps 755 mmHg 68%
    19:00 +28°C° 0 mm 2 mps 756 mmHg 75%
    20:00 +28°C° 0.1 mm 2 mps 756 mmHg 76%
    21:00 +28°C° 0.1 mm 2 mps 757 mmHg 77%
    22:00 +27°C° 0.1 mm 2 mps 757 mmHg 78%
    23:00 +27°C° 0 mm 2 mps 757 mmHg 78%

    18 November, Monday

    Time Temperature Precipitation Wind Pressure Humidity
    00:00 +27°C° 0 mm 2 mps 756 mmHg 78%
    01:00 +27°C° 0 mm 2 mps 756 mmHg 79%
    02:00 +27°C° 0 mm 1 mps 756 mmHg 80%
    03:00 +27°C° 0 mm 1 mps 755 mmHg 82%
    04:00 +26°C° 0 mm 1 mps 755 mmHg 83%
    05:00 +27°C° 0 mm 1 mps 756 mmHg 83%
    06:00 +27°C° 0 mm 1 mps 756 mmHg 82%
    07:00 +28°C° 0 mm 1 mps 757 mmHg 81%
    08:00 +30°C° 0.1 mm 1 mps 757 mmHg 72%
    09:00 +32°C° 0.1 mm 1 mps 757 mmHg 62%
    10:00 +34°C° 0.1 mm 1 mps 757 mmHg 53%
    11:00 +36°C° 0 mm 2 mps 756 mmHg 51%
    12:00 +36°C° 0 mm 2 mps 755 mmHg 49%
    13:00 +37°C° 0 mm 3 mps 755 mmHg 47%
    14:00 +36°C° 0.1 mm 3 mps 754 mmHg 50%
    15:00 +35°C° 0.1 mm 3 mps 754 mmHg 54%
    16:00 +35°C° 0.1 mm 3 mps 753 mmHg 57%
    17:00 +32°C° 0.7 mm 2 mps 754 mmHg 64%
    18:00 +30°C° 0.7 mm 1 mps 755 mmHg 70%
    19:00 +29°C° 0.7 mm 1 mps 755 mmHg 76%
    20:00 +28°C° 3.1 mm 1 mps 756 mmHg 82%
    21:00 +27°C° 3.1 mm 2 mps 756 mmHg 87%
    22:00 +27°C° 3.1 mm 2 mps 757 mmHg 92%
    23:00 +27°C° 8.9 mm 2 mps 756 mmHg 93%
    Show more